User: anonymous   Login
Location: Fours
(44.3167°N, 6.7000°E)
Time: 05:39:43
(UTC+00:00)
Language:

Cosmos 1934 Rocket - Orbit

View from above orbital plane
View from above orbital plane
View from above satellite
View from above satellite

Ground track
Ground track

The orbit data is extracted from the following two-line orbital elements,

1 18986U 88023B   21055.90077090  .00000007  00000-0 -83561-5 0  9994
2 18986  82.9536 120.2362 0042356  33.3927 326.9889 13.78659384656196
Epoch (UTC): 24 February 2021 21:37:06
Eccentricity: 0.0042356
inclination: 82.9536°
perigee height: 937 km
apogee height: 1000 km
right ascension of ascending node: 120.2362°
argument of perigee: 33.3927°
revolutions per day: 13.78659384
mean anomaly at epoch: 326.9889°
orbit number at epoch: 65619

The dashed part of the orbit path shows where the satellite is in the earth's shadow,  

DLR